Theta_e
313 314 314 314 313 313 314 315 316 316 316 316 315 314 314 314 314 314 315 314 314 314 314 314 314 316 313 306 306 318 339 337 328 319 315 313 313 317 313 314 316 314 315 316 317 316 315
310 310 311 311 311 313 313 313 313 314 315 316 316 316 315 315 315 315 315 314 315 315 314 314 315 315 310 300 313 315 316 325 320 316 313 314 313 315 313 313 313 316 315 315 315 315 315
309 309 309 308 308 309 310 311 312 313 313 314 314 316 316 315 315 315 314 314 313 314 314 314 315 313 306 303 315 317 316 317 322 320 314 315 317 314 315 312 317 315 310 312 313 314 312
310 309 309 309 309 309 309 309 309 310 311 313 313 313 315 315 315 315 315 314 313 314 314 315 316 311 301 312 316 312 314 313 315 316 318 321 320 315 312 314 312 309 309 304 311 313 314
312 312 311 311 311 310 310 310 309 308 309 310 313 312 313 313 314 315 314 314 314 315 315 317 311 306 299 316 310 314 315 311 315 319 319 318 315 313 311 305 304 307 302 303 307 314 313
311 311 311 312 312 312 312 311 311 310 309 308 310 312 312 312 313 313 313 313 314 315 314 316 311 303 309 308 311 314 316 313 310 310 309 310 311 306 307 304 296 301 302 304 305 311 312
311 311 311 312 312 312 312 312 312 311 310 310 308 310 312 312 313 312 310 310 307 308 307 305 306 303 308 315 317 311 314 312 310 307 301 306 304 301 305 308 306 306 305 305 309 312 310
310 310 310 311 311 311 312 312 313 312 312 311 310 308 309 311 312 311 309 304 307 309 301 309 309 309 310 313 306 308 314 307 305 300 304 302 301 306 308 309 306 305 304 305 308 311 310
309 309 309 309 310 310 311 311 312 312 312 312 311 309 308 310 311 308 305 305 313 313 300 302 308 310 311 311 307 307 309 308 304 300 301 299 302 307 307 307 304 305 304 305 305 309 310
307 308 308 309 310 310 310 311 311 311 311 312 312 310 308 309 305 309 308 312 315 312 293 296 301 305 309 312 306 313 313 308 305 301 302 301 305 304 306 305 306 302 308 308 307 304 299
306 307 308 309 309 309 310 310 310 310 310 311 311 310 309 307 305 303 309 313 312 308 284 303 303 313 309 306 307 308 314 309 303 302 303 300 302 302 305 306 309 306 310 308 308 305 304
307 307 308 308 309 309 309 309 310 310 310 310 311 310 309 304 305 307 310 313 309 292 283 299 307 304 303 304 306 309 308 310 309 304 305 303 308 307 307 310 310 311 308 308 307 304 297
307 306 307 308 308 308 309 309 309 310 310 310 310 310 309 307 300 309 310 305 290 284 298 298 302 304 302 301 302 304 303 302 300 296 298 302 302 307 310 306 310 308 306 297 295 294 294
307 307 307 307 308 308 308 308 309 309 309 309 309 309 308 309 307 307 304 294 283 290 292 304 304 304 300 303 302 302 302 299 304 302 299 297 295 303 309 307 305 307 306 298 291 292 295
306 306 306 307 307 308 308 308 308 308 308 308 307 307 306 307 307 305 296 284 285 291 297 296 299 297 300 303 303 301 301 301 303 305 299 298 298 307 308 310 310 306 302 307 300 301 297
305 305 305 306 307 308 308 308 309 309 308 308 304 302 302 308 307 302 291 285 290 295 296 296 291 297 294 300 300 301 301 304 303 306 309 305 299 306 307 310 311 309 310 300 301 292 291
305 305 306 307 307 307 308 309 309 308 308 307 303 293 302 309 307 295 285 287 291 296 296 292 292 293 294 294 299 300 301 304 306 305 307 308 306 304 307 305 304 305 304 304 304 301 295
306 306 306 307 307 307 308 308 308 308 307 305 297 288 305 306 291 290 287 291 294 293 295 293 294 293 293 296 296 297 301 305 309 308 303 307 306 301 303 309 311 309 306 306 299 299 301
305 305 306 306 307 307 307 308 308 307 305 300 292 293 305 306 285 286 292 291 293 292 292 291 292 294 296 295 293 300 303 309 309 308 306 308 303 299 301 306 309 306 307 308 309 308 302
305 306 306 307 307 307 308 308 308 306 303 302 293 288 298 298 296 292 290 289 289 296 294 293 292 294 294 293 297 296 300 307 309 309 311 312 305 302 299 303 307 304 305 306 305 302 300
304 306 306 307 307 308 308 308 307 307 304 300 296 292 295 289 290 290 290 291 288 287 294 295 292 292 291 290 293 296 300 299 305 310 311 311 301 305 305 306 306 305 304 304 304 305 301
305 306 307 307 308 308 308 308 307 306 305 299 294 293 296 293 293 290 288 289 288 290 291 291 291 293 294 291 293 293 296 298 299 304 308 313 302 304 302 304 305 303 305 305 305 304 305
305 306 307 307 307 308 308 308 308 307 305 299 301 302 296 291 291 289 290 290 290 292 294 294 294 293 291 294 298 300 301 301 301 300 302 309 306 303 298 304 303 300 305 305 306 307 307
305 306 306 307 307 307 308 308 308 306 305 305 301 300 292 287 291 289 291 292 291 292 291 295 296 294 296 301 301 300 299 299 301 303 308 306 308 305 299 303 293 304 311 309 307 309 310
305 306 306 307 307 307 308 308 308 306 306 302 303 296 291 288 291 291 291 292 293 295 293 294 296 299 302 299 293 291 294 297 300 304 305 311 309 302 298 298 302 303 307 307 307 307 312
304 305 306 306 307 307 308 308 309 308 306 304 306 304 296 290 291 294 293 294 291 291 293 295 300 303 301 296 291 284 287 295 296 300 307 309 311 303 301 295 293 305 309 312 312 302 314
305 305 305 306 306 306 307 308 308 307 307 305 305 307 299 291 295 297 292 291 295 293 291 295 297 297 301 294 288 287 287 296 293 296 298 301 304 299 299 299 301 309 311 313 300 305 315
306 306 306 306 306 306 307 307 308 308 307 305 305 309 301 294 296 299 300 296 295 294 289 293 296 298 297 291 289 288 288 294 296 300 301 300 299 300 301 299 295 311 310 305 316 326 321
306 306 306 306 306 306 307 307 307 307 307 306 302 310 309 298 297 303 302 302 301 299 292 293 294 297 297 295 294 295 290 292 292 292 302 295 304 301 304 303 320 319 319 323 324 321 319
Wind_Speed
18 18 17 17 15 14 14 14 14 14 14 14 15 15 14 14 14 14 15 16 17 17 16 16 16 15 10 11 17 13 9 7 8 16 22 24 27 27 26 24 24 26 26 24 19 14 23
16 17 17 17 17 17 15 15 15 15 14 15 16 16 15 15 15 14 14 16 16 16 16 16 15 15 10 20 14 18 20 10 10 15 22 22 24 25 25 25 28 22 25 23 17 24 23
17 17 17 16 17 18 18 17 17 16 15 14 14 16 17 16 16 16 17 17 17 19 21 20 15 9 14 25 11 15 16 20 18 19 19 20 22 27 23 27 24 23 25 22 23 21 21
15 15 16 16 16 16 17 18 19 18 18 16 14 14 15 16 16 17 19 19 20 21 23 21 14 10 14 12 21 30 28 25 19 21 19 15 17 21 25 22 24 23 26 22 23 23 25
16 16 16 16 16 16 16 17 18 19 19 18 17 16 15 17 17 17 19 20 25 26 22 15 9 12 16 13 26 29 25 26 19 17 13 16 20 20 18 20 20 20 18 25 24 22 24
19 19 18 18 17 15 15 16 17 18 19 19 18 17 16 17 17 17 18 23 28 19 13 11 13 13 17 21 20 24 25 25 22 20 21 20 17 19 18 17 21 19 23 22 23 23 18
21 21 21 20 20 18 18 19 18 18 18 18 18 17 17 16 15 16 15 13 8 9 14 17 16 20 18 16 20 20 19 22 24 21 22 21 16 22 25 26 25 25 24 24 22 14 10
20 20 21 21 21 20 19 19 18 19 18 17 17 18 17 17 17 15 12 11 18 14 14 26 32 28 27 20 14 18 15 20 26 27 24 23 26 26 27 25 27 28 26 24 21 18 14
21 21 21 21 21 20 20 20 19 19 18 17 14 15 18 18 17 14 16 24 21 23 13 22 28 35 31 28 27 21 26 23 22 26 29 28 26 27 28 26 26 25 25 20 23 17 16
22 22 21 21 20 20 21 21 21 20 19 18 15 12 15 15 12 10 16 19 18 9 10 16 23 28 34 28 38 29 24 23 23 27 30 31 27 29 29 28 26 25 25 25 19 15 12
23 22 21 21 20 20 21 21 21 20 20 19 16 15 12 9 16 12 14 19 9 3 10 9 33 13 21 35 9 34 31 27 26 26 23 29 29 29 30 28 27 23 24 22 16 15 16
23 24 22 22 22 22 22 21 21 21 20 19 17 14 11 11 13 15 16 14 9 9 17 10 9 26 23 31 35 8 36 31 24 26 28 27 23 30 30 26 26 24 22 16 11 12 14
24 24 23 23 23 23 23 22 21 20 19 19 17 15 12 11 14 10 3 8 9 16 11 12 20 24 24 25 32 33 31 33 28 27 28 26 30 30 29 28 23 23 17 10 12 12 12
24 23 23 23 24 25 24 23 21 20 19 18 15 12 12 12 14 11 1 6 17 20 35 10 20 24 25 23 28 34 26 27 32 31 15 23 24 33 26 31 25 23 16 13 15 12 17
24 23 23 24 25 25 25 23 21 19 19 14 10 9 10 12 15 6 5 14 22 27 19 28 31 30 23 25 21 31 35 29 31 32 25 22 29 24 32 23 25 21 23 18 18 16 13
24 23 24 24 24 25 26 24 21 20 17 10 6 5 11 12 13 3 6 18 24 30 37 34 29 19 21 20 27 31 31 31 31 33 24 23 18 28 29 25 24 22 18 17 13 17 15
22 24 23 24 25 25 24 23 19 20 18 7 4 3 7 14 9 4 8 19 24 26 33 30 29 28 27 26 25 28 31 27 31 32 31 25 17 19 24 27 22 19 20 18 14 14 12
22 22 23 24 24 24 23 21 18 20 10 4 2 4 8 14 6 2 7 22 20 24 26 28 23 20 27 25 22 18 22 31 23 30 34 31 10 16 24 25 26 23 23 18 11 17 12
22 23 24 24 24 23 22 20 19 10 3 2 2 4 8 9 6 9 16 23 25 24 25 24 21 21 24 24 14 14 20 24 36 30 29 25 20 14 20 22 25 24 24 20 14 9 14
23 23 24 25 24 23 22 20 15 3 6 2 3 4 1 3 3 11 17 21 20 18 25 20 20 21 21 21 21 17 22 17 21 29 30 21 19 22 15 16 21 26 24 22 19 13 14
24 24 25 25 25 25 22 16 10 6 5 4 4 4 4 3 6 11 14 19 22 21 21 14 21 19 21 21 23 19 17 20 25 23 24 21 26 22 25 23 27 26 26 25 25 20 19
23 24 25 25 26 25 18 12 8 6 5 5 3 4 6 9 9 13 11 12 20 21 21 19 17 18 20 21 22 18 21 19 15 20 12 19 23 24 24 28 25 27 28 26 26 25 22
22 23 24 24 25 24 21 12 11 6 8 4 3 4 5 7 8 9 10 11 12 15 15 14 17 19 16 19 23 18 20 21 27 24 21 13 18 21 23 23 25 25 27 26 21 21 22
22 22 23 23 24 23 22 15 12 11 12 2 2 5 3 9 8 5 13 12 15 19 14 18 15 15 16 18 13 20 23 26 27 25 19 16 20 16 18 20 27 14 18 22 21 19 20
22 22 23 23 23 23 21 20 14 8 5 6 1 2 3 5 13 16 9 14 14 15 16 18 17 20 9 5 6 12 13 18 21 23 21 18 17 11 16 18 14 22 25 22 21 21 19
23 23 22 22 23 23 22 21 17 7 7 7 5 4 2 5 5 18 14 14 11 13 16 20 17 18 7 3 1 4 7 9 11 9 18 18 15 11 12 20 25 16 22 21 15 16 17
21 22 22 22 22 24 23 22 15 11 5 6 3 4 4 4 13 9 11 10 8 10 9 17 10 13 8 5 4 6 9 10 10 21 16 16 15 18 13 11 17 22 20 22 20 8 16
20 20 21 21 21 22 22 20 17 14 8 5 4 5 4 5 17 20 15 9 7 6 4 11 10 10 6 6 2 2 6 9 11 16 12 19 16 13 16 13 15 15 20 23 8 5 9
21 20 20 20 20 20 21 19 15 13 9 4 4 4 4 5 12 20 20 19 14 15 3 6 6 11 7 6 7 3 4 4 9 5 13 10 11 12 12 13 5 7 8 9 9 11 8
Wind_Direction
5 4 359 350 346 342 335 336 329 322 315 296 294 301 302 301 305 315 318 314 315 315 316 316 322 332 315 236 239 248 125 131 181 206 217 230 237 227 237 241 244 252 261 261 272 277 264
356 352 348 345 347 349 341 331 326 323 326 320 306 294 290 291 296 301 298 303 304 304 302 306 315 316 243 253 256 263 258 195 204 209 226 225 238 245 248 246 254 256 260 267 270 257 263
353 352 348 343 339 336 334 337 337 327 321 316 318 310 292 291 295 296 298 302 305 304 306 304 310 301 263 244 267 266 282 208 220 197 219 222 233 252 256 250 262 264 266 270 255 254 260
352 348 346 342 339 337 333 328 325 324 329 320 315 316 319 304 298 299 300 301 297 292 292 288 280 263 257 256 241 256 264 272 228 235 236 250 245 244 260 273 262 257 261 258 259 252 251
348 342 336 329 327 327 326 326 326 323 318 319 320 312 311 311 306 300 297 295 289 284 281 274 229 216 263 244 225 236 237 234 241 222 231 237 232 249 234 248 258 248 250 254 257 250 254
352 348 343 338 331 323 318 315 314 315 318 316 313 319 310 306 307 303 301 291 276 280 239 212 250 215 238 249 237 222 224 237 225 238 235 243 227 232 235 223 232 236 239 237 251 260 252
349 346 343 339 339 336 330 324 315 306 305 307 309 309 316 311 301 306 309 304 221 196 222 211 198 214 287 228 236 223 217 214 227 236 226 219 225 226 224 225 236 244 249 249 251 238 267
348 345 342 340 338 333 327 323 318 313 302 298 302 307 305 308 305 300 288 263 270 327 285 230 252 239 244 272 266 226 215 207 207 219 216 215 224 225 232 230 230 241 251 260 273 283 291
343 341 340 337 333 328 327 324 322 317 310 296 286 295 302 306 307 282 249 254 270 289 275 260 236 235 236 235 242 230 211 211 212 211 215 223 221 221 234 227 229 232 244 254 263 276 277
337 337 336 333 329 325 323 320 318 314 311 306 289 282 292 307 291 272 260 243 233 263 273 254 215 239 224 223 241 230 225 211 220 216 217 229 225 226 223 233 221 231 232 239 250 270 271
337 333 332 330 327 326 325 321 317 315 311 303 290 276 280 273 307 295 340 338 338 213 264 236 213 185 192 199 165 209 217 210 213 211 212 224 222 226 225 219 231 233 236 240 237 244 256
333 332 331 329 329 328 324 322 316 313 309 307 295 272 267 262 238 273 286 314 288 227 235 244 224 184 191 198 217 221 196 221 216 224 228 230 234 226 231 231 218 233 236 244 253 261 253
332 331 329 327 329 328 324 322 319 312 306 302 294 275 243 263 268 296 340 278 212 230 238 255 188 174 198 193 209 227 187 198 212 208 223 226 228 232 230 228 223 216 225 223 223 235 254
330 329 328 328 330 326 324 322 319 315 309 297 288 264 238 246 255 270 343 234 231 227 238 267 224 186 200 217 201 209 190 200 213 207 207 219 220 221 217 229 219 208 203 229 224 225 245
329 329 329 329 326 325 322 321 318 317 316 299 286 253 247 238 231 234 192 221 230 247 271 241 283 284 199 217 215 201 218 203 205 206 214 206 229 212 227 208 228 197 212 215 251 262 275
332 332 331 327 326 326 324 323 318 316 314 296 277 261 242 221 229 160 215 238 248 251 269 291 293 320 316 227 224 194 201 222 206 206 217 233 216 226 202 216 211 222 194 207 226 242 264
332 332 332 329 329 328 328 326 320 318 311 275 262 273 243 219 197 191 222 222 241 260 275 288 289 301 308 302 296 214 209 219 205 203 211 228 250 212 215 204 197 201 228 198 225 223 229
335 336 333 331 331 330 329 328 326 325 315 183 145 245 269 171 178 215 239 242 273 276 281 289 289 288 284 299 305 296 233 213 219 203 200 212 226 243 216 201 200 207 216 203 214 220 249
341 337 334 332 331 329 328 328 328 337 314 129 239 250 304 157 206 233 247 249 258 268 272 273 277 270 285 305 306 288 267 245 221 190 206 199 226 238 236 208 185 211 217 217 205 221 216
341 338 335 334 331 330 328 325 331 242 305 340 331 310 102 218 282 275 261 267 280 285 278 261 262 272 277 274 279 282 294 291 230 218 199 185 220 222 230 211 177 193 216 215 214 209 227
341 339 337 336 336 333 330 327 337 242 256 292 215 238 227 234 247 254 301 282 280 279 281 287 248 256 261 279 281 269 337 340 321 286 188 186 212 225 230 238 195 194 204 221 215 214 221
340 340 341 340 341 339 339 343 332 243 240 253 284 330 336 292 286 273 247 274 274 274 286 290 286 247 247 261 265 307 317 321 286 341 257 187 209 214 226 229 244 202 201 213 225 215 214
341 342 343 344 348 353 350 354 336 316 206 282 309 302 313 294 288 295 276 273 298 301 287 263 259 285 290 272 278 282 304 288 290 290 294 234 205 200 225 222 236 221 199 201 218 228 210
341 342 343 344 346 348 346 337 334 332 215 293 350 312 271 285 299 220 275 301 259 281 290 293 289 254 272 280 333 282 273 273 276 265 255 268 205 197 212 224 228 233 207 207 215 223 223
341 341 342 342 344 345 344 348 334 328 260 245 158 39 311 290 311 296 339 277 312 293 259 263 270 272 271 282 281 310 284 258 249 250 255 244 199 195 206 220 231 216 229 208 202 210 211
339 339 338 339 342 342 342 342 331 309 227 258 270 215 274 294 287 321 320 330 316 317 302 284 271 258 246 217 135 251 290 234 211 228 232 241 183 196 193 215 221 224 211 225 223 217 201
333 333 334 336 339 342 343 345 355 340 304 254 273 274 258 276 273 303 312 297 310 311 286 288 304 227 218 202 157 237 257 279 253 215 200 221 188 195 224 211 213 216 218 199 212 231 191
328 327 327 330 333 337 340 344 356 347 340 258 276 249 260 266 288 277 282 276 274 282 308 320 305 243 158 208 172 194 272 329 301 291 247 214 184 194 209 231 220 223 213 219 157 184 201
327 324 322 325 328 331 334 338 343 353 359 314 282 295 288 249 277 289 281 273 241 251 159 236 340 318 25 236 201 222 274 335 334 274 281 294 184 207 216 215 274 265 253 135 146 224 227